Time,TemperatureF,DewpointF,PressureIn,WindDirection,WindDirectionDegrees,WindSpeedMPH,WindSpeedGustMPH,Humidity,HourlyPrecipIn,Conditions,Clouds,dailyrainin,SoftwareType,DateUTC
2015-03-03 00:02:00,39.7,28.1,29.89,WSW,247,0.0,4.0,63,0.00,,---,0.01,VWS V15.00,2015-03-03 08:02:00,
2015-03-03 00:07:00,39.2,29.9,29.89,WSW,246,0.0,0.0,69,0.00,,---,0.00,VWS V15.00,2015-03-03 08:07:00,
2015-03-03 00:12:00,38.9,29.2,29.89,NE,56,2.0,3.0,68,0.00,,---,0.00,VWS V15.00,2015-03-03 08:12:00,
2015-03-03 00:17:00,38.6,27.9,29.89,NE,56,0.0,3.0,65,0.00,,---,0.00,VWS V15.00,2015-03-03 08:17:00,
2015-03-03 00:22:00,38.5,27.0,29.89,SW,230,0.0,3.0,63,0.00,,---,0.00,VWS V15.00,2015-03-03 08:22:00,
2015-03-03 00:27:00,38.4,29.1,29.89,SW,230,0.0,3.0,69,0.00,,---,0.00,VWS V15.00,2015-03-03 08:27:00,
2015-03-03 00:32:00,38.3,27.2,29.89,SW,230,0.0,3.0,64,0.00,,---,0.00,VWS V15.00,2015-03-03 08:32:00,
2015-03-03 00:37:00,38.4,26.9,29.89,SW,230,0.0,0.0,63,0.00,,---,0.00,VWS V15.00,2015-03-03 08:37:00,
2015-03-03 00:42:00,38.4,26.9,29.89,SW,230,0.0,0.0,63,0.00,,---,0.00,VWS V15.00,2015-03-03 08:42:00,
2015-03-03 00:47:00,38.6,26.3,29.89,SW,229,0.0,1.0,61,0.00,,---,0.00,VWS V15.00,2015-03-03 08:47:00,
2015-03-03 00:52:00,38.8,27.3,29.90,WSW,257,0.0,1.0,63,0.00,,---,0.00,VWS V15.00,2015-03-03 08:52:00,
2015-03-03 00:57:00,38.8,25.3,29.90,South,188,0.0,1.0,58,0.00,,---,0.00,VWS V15.00,2015-03-03 08:57:00,
2015-03-03 01:02:00,38.9,27.0,29.90,South,186,0.0,1.0,62,0.00,,---,0.00,VWS V15.00,2015-03-03 09:02:00,
2015-03-03 01:07:00,38.7,26.4,29.90,South,186,0.0,1.0,61,0.00,,---,0.00,VWS V15.00,2015-03-03 09:07:00,
2015-03-03 01:12:00,38.5,26.2,29.90,South,186,0.0,1.0,61,0.00,,---,0.00,VWS V15.00,2015-03-03 09:12:00,
2015-03-03 01:17:00,38.3,28.7,29.90,South,185,0.0,1.0,68,0.00,,---,0.00,VWS V15.00,2015-03-03 09:17:00,
2015-03-03 01:22:00,38.1,29.5,29.91,SSW,212,0.0,2.0,71,0.00,,---,0.00,VWS V15.00,2015-03-03 09:22:00,
2015-03-03 01:27:00,37.9,30.0,29.91,SSW,210,0.0,2.0,73,0.00,,---,0.00,VWS V15.00,2015-03-03 09:27:00,
2015-03-03 01:32:00,37.6,30.7,29.92,SSW,210,0.0,2.0,76,0.00,,---,0.00,VWS V15.00,2015-03-03 09:32:00,
2015-03-03 01:37:00,37.1,30.6,29.91,SSW,210,0.0,0.0,77,0.00,,---,0.00,VWS V15.00,2015-03-03 09:37:00,
2015-03-03 01:42:00,36.5,30.3,29.92,SSW,209,0.0,1.0,78,0.00,,---,0.00,VWS V15.00,2015-03-03 09:42:00,
2015-03-03 01:47:00,36.0,30.4,29.92,SSW,210,0.0,1.0,80,0.00,,---,0.00,VWS V15.00,2015-03-03 09:47:00,
2015-03-03 01:52:00,35.7,30.5,29.92,NNE,27,1.0,3.0,81,0.00,,---,0.00,VWS V15.00,2015-03-03 09:52:00,
2015-03-03 01:57:00,35.7,30.8,29.92,NNE,27,0.0,3.0,82,0.00,,---,0.00,VWS V15.00,2015-03-03 09:57:00,
2015-03-03 02:02:00,35.4,29.2,29.92,NNE,27,0.0,3.0,78,0.00,,---,0.00,VWS V15.00,2015-03-03 10:02:00,
2015-03-03 02:07:00,35.7,26.5,29.92,NNW,338,0.0,1.0,69,0.00,,---,0.00,VWS V15.00,2015-03-03 10:07:00,
2015-03-03 02:12:00,36.0,27.2,29.92,NNW,338,0.0,2.0,70,0.00,,---,0.00,VWS V15.00,2015-03-03 10:12:00,
2015-03-03 02:17:00,36.3,28.8,29.92,NNW,338,0.0,2.0,74,0.00,,---,0.00,VWS V15.00,2015-03-03 10:17:00,
2015-03-03 02:22:00,36.3,28.8,29.92,NNW,338,0.0,2.0,74,0.00,,---,0.00,VWS V15.00,2015-03-03 10:22:00,
2015-03-03 02:27:00,36.4,26.9,29.92,NNW,334,0.0,2.0,68,0.00,,---,0.00,VWS V15.00,2015-03-03 10:27:00,
2015-03-03 02:32:00,36.5,29.7,29.92,NNW,334,0.0,2.0,76,0.00,,---,0.00,VWS V15.00,2015-03-03 10:32:00,
2015-03-03 02:37:00,36.4,29.9,29.92,NNW,335,0.0,1.0,77,0.00,,---,0.00,VWS V15.00,2015-03-03 10:37:00,
2015-03-03 02:42:00,36.1,26.9,29.93,WNW,284,1.0,2.0,69,0.00,,---,0.00,VWS V15.00,2015-03-03 10:42:00,
2015-03-03 02:47:00,36.2,28.7,29.93,WNW,284,0.0,2.0,74,0.00,,---,0.00,VWS V15.00,2015-03-03 10:47:00,
2015-03-03 02:52:00,36.1,29.9,29.93,WNW,283,0.0,2.0,78,0.00,,---,0.00,VWS V15.00,2015-03-03 10:52:00,
2015-03-03 02:57:00,36.0,30.4,29.93,WNW,284,0.0,2.0,80,0.00,,---,0.00,VWS V15.00,2015-03-03 10:57:00,
2015-03-03 03:02:00,36.1,28.6,29.93,East,86,0.0,3.0,74,0.00,,---,0.00,VWS V15.00,2015-03-03 11:02:00,
2015-03-03 03:07:00,36.1,28.6,29.93,East,86,0.0,0.0,74,0.00,,---,0.00,VWS V15.00,2015-03-03 11:07:00,
2015-03-03 03:12:00,36.0,26.8,29.93,East,86,0.0,0.0,69,0.00,,---,0.00,VWS V15.00,2015-03-03 11:12:00,
2015-03-03 03:17:00,36.1,27.3,29.93,East,86,0.0,0.0,70,0.00,,---,0.00,VWS V15.00,2015-03-03 11:17:00,
2015-03-03 03:22:00,36.2,29.0,29.93,East,86,0.0,0.0,75,0.00,,---,0.00,VWS V15.00,2015-03-03 11:22:00,
2015-03-03 03:27:00,36.1,28.0,29.93,East,86,0.0,0.0,72,0.00,,---,0.00,VWS V15.00,2015-03-03 11:27:00,
2015-03-03 03:32:00,36.0,29.8,29.94,East,86,0.0,0.0,78,0.00,,---,0.00,VWS V15.00,2015-03-03 11:32:00,
2015-03-03 03:37:00,35.9,30.3,29.94,East,86,0.0,2.0,80,0.00,,---,0.00,VWS V15.00,2015-03-03 11:37:00,
2015-03-03 03:42:00,35.7,28.9,29.94,East,86,0.0,2.0,76,0.00,,---,0.00,VWS V15.00,2015-03-03 11:42:00,
2015-03-03 03:47:00,35.6,30.0,29.94,East,86,0.0,2.0,80,0.00,,---,0.00,VWS V15.00,2015-03-03 11:47:00,
2015-03-03 03:52:00,35.6,26.8,29.93,ESE,117,0.0,2.0,70,0.00,,---,0.00,VWS V15.00,2015-03-03 11:52:00,
2015-03-03 03:57:00,35.6,25.0,29.94,ESE,117,0.0,2.0,65,0.00,,---,0.00,VWS V15.00,2015-03-03 11:57:00,
2015-03-03 04:02:00,35.9,23.8,29.93,ESE,110,0.0,2.0,61,0.00,,---,0.00,VWS V15.00,2015-03-03 12:02:00,
2015-03-03 04:07:00,36.0,23.9,29.93,ESE,110,0.0,1.0,61,0.00,,---,0.00,VWS V15.00,2015-03-03 12:07:00,
2015-03-03 04:12:00,36.1,23.6,29.94,ESE,110,0.0,1.0,60,0.00,,---,0.00,VWS V15.00,2015-03-03 12:12:00,
2015-03-03 04:17:00,36.0,23.1,29.93,ESE,110,0.0,1.0,59,0.00,,---,0.00,VWS V15.00,2015-03-03 12:17:00,
2015-03-03 04:22:00,35.9,24.2,29.94,ESE,110,0.0,1.0,62,0.00,,---,0.00,VWS V15.00,2015-03-03 12:22:00,
2015-03-03 04:27:00,35.8,26.3,29.94,ESE,110,0.0,1.0,68,0.00,,---,0.00,VWS V15.00,2015-03-03 12:27:00,
2015-03-03 04:32:00,35.6,25.7,29.94,ESE,110,0.0,1.0,67,0.00,,---,0.00,VWS V15.00,2015-03-03 12:32:00,
2015-03-03 04:37:00,35.5,25.6,29.94,ESE,110,0.0,0.0,67,0.00,,---,0.00,VWS V15.00,2015-03-03 12:37:00,
2015-03-03 04:42:00,35.4,24.8,29.94,NE,42,0.0,2.0,65,0.00,,---,0.00,VWS V15.00,2015-03-03 12:42:00,
2015-03-03 04:47:00,35.3,25.1,29.94,NE,42,0.0,2.0,66,0.00,,---,0.00,VWS V15.00,2015-03-03 12:47:00,
2015-03-03 04:52:00,35.3,27.9,29.94,NE,42,0.0,2.0,74,0.00,,---,0.00,VWS V15.00,2015-03-03 12:52:00,
2015-03-03 04:57:00,35.1,28.3,29.94,NE,42,0.0,2.0,76,0.00,,---,0.00,VWS V15.00,2015-03-03 12:57:00,
2015-03-03 05:02:00,34.7,27.6,29.94,NE,42,0.0,2.0,75,0.00,,---,0.00,VWS V15.00,2015-03-03 13:02:00,
2015-03-03 05:07:00,34.2,26.5,29.94,NE,42,0.0,0.0,73,0.00,,---,0.00,VWS V15.00,2015-03-03 13:07:00,
2015-03-03 05:12:00,34.1,27.7,29.94,NE,42,0.0,1.0,77,0.00,,---,0.00,VWS V15.00,2015-03-03 13:12:00,
2015-03-03 05:17:00,34.0,27.6,29.94,NE,42,0.0,1.0,77,0.00,,---,0.00,VWS V15.00,2015-03-03 13:17:00,
2015-03-03 05:22:00,34.1,27.3,29.94,NE,42,0.0,1.0,76,0.00,,---,0.00,VWS V15.00,2015-03-03 13:22:00,
2015-03-03 05:27:00,34.1,26.4,29.94,NE,42,0.0,1.0,73,0.00,,---,0.00,VWS V15.00,2015-03-03 13:27:00,
2015-03-03 05:32:00,34.2,26.5,29.94,NE,42,0.0,1.0,73,0.00,,---,0.00,VWS V15.00,2015-03-03 13:32:00,
2015-03-03 05:37:00,34.4,28.3,29.94,NE,42,0.0,0.0,78,0.00,,---,0.00,VWS V15.00,2015-03-03 13:37:00,
2015-03-03 05:42:00,34.4,26.3,29.94,NE,42,0.0,0.0,72,0.00,,---,0.00,VWS V15.00,2015-03-03 13:42:00,
2015-03-03 05:47:00,34.4,23.9,29.94,NE,42,0.0,0.0,65,0.00,,---,0.00,VWS V15.00,2015-03-03 13:47:00,
2015-03-03 05:52:00,34.6,23.7,29.94,NE,42,0.0,0.0,64,0.00,,---,0.00,VWS V15.00,2015-03-03 13:52:00,
2015-03-03 05:57:00,34.8,27.4,29.94,NE,42,0.0,0.0,74,0.00,,---,0.00,VWS V15.00,2015-03-03 13:57:00,
2015-03-03 06:02:00,34.6,27.2,29.94,NE,42,0.0,0.0,74,0.00,,---,0.00,VWS V15.00,2015-03-03 14:02:00,
2015-03-03 06:07:00,34.2,26.8,29.94,NE,42,0.0,0.0,74,0.00,,---,0.00,VWS V15.00,2015-03-03 14:07:00,
2015-03-03 06:12:00,33.8,26.1,29.94,NE,42,0.0,1.0,73,0.00,,---,0.00,VWS V15.00,2015-03-03 14:12:00,
2015-03-03 06:17:00,33.5,27.4,29.94,NE,42,0.0,1.0,78,0.00,,---,0.00,VWS V15.00,2015-03-03 14:17:00,
2015-03-03 06:22:00,33.5,28.0,29.94,NE,42,0.0,1.0,80,0.00,,---,0.00,VWS V15.00,2015-03-03 14:22:00,
2015-03-03 06:27:00,33.4,28.2,29.94,NE,42,0.0,1.0,81,0.00,,---,0.00,VWS V15.00,2015-03-03 14:27:00,
2015-03-03 06:32:00,33.4,28.5,29.94,NE,44,0.0,2.0,82,0.00,,---,0.00,VWS V15.00,2015-03-03 14:32:00,
2015-03-03 06:37:00,33.4,27.3,29.94,NE,44,0.0,1.0,78,0.00,,---,0.00,VWS V15.00,2015-03-03 14:37:00,
2015-03-03 06:42:00,33.5,25.5,29.94,NE,44,0.0,1.0,72,0.00,,---,0.00,VWS V15.00,2015-03-03 14:42:00,
2015-03-03 06:47:00,33.8,24.4,29.94,NE,45,0.0,1.0,68,0.00,,---,0.00,VWS V15.00,2015-03-03 14:47:00,
2015-03-03 06:52:00,34.1,24.0,29.94,NE,46,0.0,1.0,66,0.00,,---,0.00,VWS V15.00,2015-03-03 14:52:00,
2015-03-03 06:57:00,34.4,23.5,29.94,NE,45,0.0,1.0,64,0.00,,---,0.00,VWS V15.00,2015-03-03 14:57:00,
2015-03-03 07:02:00,34.7,25.6,29.94,NE,45,0.0,1.0,69,0.00,,---,0.00,VWS V15.00,2015-03-03 15:02:00,
2015-03-03 07:07:00,34.7,24.1,29.94,NE,46,0.0,0.0,65,0.00,,---,0.00,VWS V15.00,2015-03-03 15:07:00,
2015-03-03 07:12:00,34.9,26.8,29.94,NE,46,0.0,0.0,72,0.00,,---,0.00,VWS V15.00,2015-03-03 15:12:00,
2015-03-03 07:17:00,34.9,24.7,29.94,NE,46,0.0,1.0,66,0.00,,---,0.00,VWS V15.00,2015-03-03 15:17:00,
2015-03-03 07:22:00,34.9,24.7,29.94,NE,46,0.0,1.0,66,0.00,,---,0.00,VWS V15.00,2015-03-03 15:22:00,
2015-03-03 07:27:00,35.0,26.9,29.94,NE,46,0.0,1.0,72,0.00,,---,0.00,VWS V15.00,2015-03-03 15:27:00,
2015-03-03 07:32:00,34.9,28.1,29.94,NE,46,0.0,2.0,76,0.00,,---,0.00,VWS V15.00,2015-03-03 15:32:00,